Погода в Воскресенском

Россия / Тульская область     54°28′13″N   38°13′12″E
темп.,
°C
ветер,
м/с
пор.,
м/с
влажн.,
%
обл.,
%
осадки,
мм/ч
давл.,
гПа
погр.,
м
17 апреля, сб
сб1700:00+10вюв238598 1.7 101850
03:00+9в3696100 2.4 1019157
06:00+8всв379732 0.0 1019164
09:00+11всв578763 0.0 1019449
12:00+15всв796669 0.0 10191198
15:00+17в8125631 0.1 10171729
18:00+15всв91565100 3.2 1016956
21:00+9ссз129499 12.1 1018133
18 апреля, вс
вс1800:00+9св41193100 3.4 1017560
03:00+8юв3688100 4.0 1018553
06:00+7ю1292100 5.0 1018575
09:00+6ссв3391100 10.2 1019318
12:00+7всв4485100 0.1 1020616
15:00+10св667382 0.1 1020963
18:00+7всв6889100 3.5 1021917
21:00+6всв51092100 4.4 1022487
19 апреля, пн
пн1900:00+6всв51095100 0.1 1021396
03:00+5всв5109583 0.1 1022390
06:00+5всв61092100 0.2 1022500
09:00+6всв61089100 0.2 1023707
12:00+5всв71192100 0.5 1023809
15:00+4всв71195100 2.2 1024915
18:00+4всв71188100 0.4 1024897
21:00+3в71088100 0.4 1025805
20 апреля, вт
вт2000:00+1всв61095100 0.1 1024634
03:00+1всв61097100 0.1 1023507
06:00+1всв51097100 0.2 1022448
09:00+2всв61197100 0.3 1021566
12:00+3в71296100 0.0 1020603
15:00+3всв81396100 0.0 1017744
18:00+3всв81796100 2.1 1013782
21:00+5в112094100 11.9 10071005
21 апреля, ср
ср2100:00+6вюв112293100 7.4 10031293
03:00+8вюв91895100 9.8 1000772
06:00+8юв91489100 1.6 1000784
09:00+8юв71490100 2.1 10001304
12:00+8ююв81392100 3.4 10001163
15:00+3ю81196100 3.6 1003929
18:00+3юз91595100 0.1 1007753
21:00+4юз81384100 0.3 10121145